Tracking 20376 objects as of 20-Feb-2020
HD Live streaming from Space Station
objects crossing your sky now
Track the group of recently launched Starlink satellites

COSMOS 1188


COSMOS 1188 is no longer on orbit


NORAD ID: 11844
Int'l Code: 1980-050A
Perigee: N/A
Apogee: N/A
Inclination: N/A
Period: N/A
Semi major axis: N/A
RCS: N/A
Launch date: June 14, 1980
Source: Commonwealth of Independent States (former USSR) (CIS)
Launch site: PLESETSK MISSILE AND SPACE COMPLEX (PKMTR)
Decay date: 2013-05-24
aabbcc
Your satellite tracking list
Your tracking list is empty




NASA's NSSDC Master Catalog

Two Line Element Set (TLE):
1 11844U 80050A   13144.22762117  .99999999  16623-4  31779-2 0  9995
2 11844 062.1386 169.3793 0646593 031.0576 103.3285 15.07918463241901
Source of the keplerian elements: AFSPC